DLH2VT KJFK-EIDW

Flight info

Callsign DLH2VT
Flight time 6h 15m
Altitude 37000
Route GREKI DCT JUDDS DCT MARTN DCT EBONY N567B TUDEP/M083F390 DCT 52N050W 54N040W 55N030W 55N020W DCT DOGAL DCT BEXET/N0480F390 DCT DEVOL DCT OLAPO OLAPO4L
Aircraft A346/H-SDE2E3FGHIJ3J4J5M1RWXY/LB1D1

Departure

Time 2026-05-08 16:09
Airport John F. Kennedy International Airport (KJFK)

Arrival

Time 2026-05-08 22:25
Airport Dublin Airport (EIDW)
Time Latitude Longitude Altitude Speed Heading
2026-05-08 15:41 40.63716 -73.78004 24 ft 0 kts 263°
2026-05-08 15:53 40.63716 -73.77998 24 ft 2 kts 263°
2026-05-08 15:54 40.63718 -73.77979 25 ft 1 kts 263°
2026-05-08 15:54 40.63719 -73.77966 25 ft 2 kts 259°
2026-05-08 15:54 40.63724 -73.77947 24 ft 2 kts 238°
2026-05-08 15:54 40.63733 -73.77931 24 ft 2 kts 221°
2026-05-08 15:55 40.63746 -73.77920 24 ft 2 kts 205°
2026-05-08 15:55 40.63774 -73.77912 25 ft 0 kts 174°
2026-05-08 15:55 40.63778 -73.77913 24 ft 0 kts 172°
2026-05-08 16:00 40.63737 -73.77906 24 ft 11 kts 173°
2026-05-08 16:00 40.63644 -73.77891 24 ft 15 kts 174°
2026-05-08 16:01 40.63554 -73.77817 23 ft 17 kts 123°
2026-05-08 16:01 40.63517 -73.77720 24 ft 8 kts 85°
2026-05-08 16:01 40.63562 -73.77664 24 ft 11 kts 31°
2026-05-08 16:01 40.63659 -73.77589 24 ft 22 kts 31°
2026-05-08 16:02 40.63816 -73.77468 24 ft 27 kts 30°
2026-05-08 16:02 40.63987 -73.77333 24 ft 29 kts 31°
2026-05-08 16:02 40.64167 -73.77193 24 ft 30 kts 31°
2026-05-08 16:02 40.64341 -73.77055 25 ft 26 kts 30°
2026-05-08 16:03 40.64483 -73.76987 24 ft 15 kts
2026-05-08 16:03 40.64578 -73.76934 24 ft 13 kts 30°
2026-05-08 16:03 40.64662 -73.76868 24 ft 12 kts 31°
2026-05-08 16:03 40.64722 -73.76821 24 ft 9 kts 30°
2026-05-08 16:04 40.64786 -73.76771 24 ft 12 kts 30°
2026-05-08 16:04 40.64867 -73.76709 24 ft 14 kts 30°
2026-05-08 16:04 40.64952 -73.76643 24 ft 13 kts 32°
2026-05-08 16:04 40.65017 -73.76589 24 ft 10 kts 32°
2026-05-08 16:05 40.65080 -73.76540 24 ft 8 kts 31°
2026-05-08 16:05 40.65100 -73.76476 24 ft 7 kts 112°
2026-05-08 16:05 40.65096 -73.76468 24 ft 0 kts 120°
2026-05-08 16:07 40.65086 -73.76447 24 ft 5 kts 120°
2026-05-08 16:07 40.65060 -73.76388 24 ft 9 kts 122°
2026-05-08 16:07 40.65007 -73.76366 24 ft 10 kts 212°
2026-05-08 16:07 40.64961 -73.76402 24 ft 0 kts 210°
2026-05-08 16:08 40.64952 -73.76408 24 ft 0 kts 210°
2026-05-08 16:08 40.64951 -73.76409 24 ft 0 kts 210°
2026-05-08 16:08 40.64946 -73.76413 24 ft 1 kts 210°
2026-05-08 16:08 40.64923 -73.76430 24 ft 6 kts 210°
2026-05-08 16:09 40.64675 -73.76630 25 ft 78 kts 210°
2026-05-08 16:09 40.64271 -73.76946 25 ft 121 kts 208°
2026-05-08 16:09 40.63014 -73.77931 84 ft 184 kts 214°
2026-05-08 16:09 40.61907 -73.78805 617 ft 188 kts 214°
2026-05-08 16:10 40.60777 -73.79667 1316 ft 188 kts 213°
2026-05-08 16:10 40.59661 -73.80538 1939 ft 193 kts 216°
2026-05-08 16:10 40.58475 -73.81485 2416 ft 208 kts 216°
2026-05-08 16:10 40.57178 -73.82471 2967 ft 220 kts 214°
2026-05-08 16:11 40.55757 -73.83373 3413 ft 243 kts 198°
2026-05-08 16:11 40.53992 -73.83401 3863 ft 271 kts 168°
2026-05-08 16:11 40.52272 -73.82219 4566 ft 288 kts 139°
2026-05-08 16:11 40.51112 -73.80096 5422 ft 293 kts 111°
2026-05-08 16:12 40.50755 -73.77518 6261 ft 295 kts 84°
2026-05-08 16:12 40.51277 -73.74947 7057 ft 292 kts 56°
2026-05-08 16:12 40.52501 -73.72869 7860 ft 289 kts 40°
2026-05-08 16:12 40.53914 -73.71004 8666 ft 291 kts 38°
2026-05-08 16:13 40.55370 -73.69159 9462 ft 295 kts 37°
2026-05-08 16:13 40.56838 -73.67302 10246 ft 299 kts 37°
2026-05-08 16:13 40.58369 -73.65360 10773 ft 312 kts 37°
2026-05-08 16:13 40.59967 -73.63333 11147 ft 330 kts 37°
2026-05-08 16:14 40.61657 -73.61193 11500 ft 348 kts 37°
2026-05-08 16:14 40.63468 -73.58920 11835 ft 367 kts 37°
2026-05-08 16:14 40.65346 -73.56582 12156 ft 384 kts 37°
2026-05-08 16:14 40.67322 -73.54136 12686 ft 395 kts 37°
2026-05-08 16:15 40.69342 -73.51627 13403 ft 400 kts 37°
2026-05-08 16:15 40.71359 -73.49107 14140 ft 404 kts 37°
2026-05-08 16:15 40.73397 -73.46538 14812 ft 410 kts 37°
2026-05-08 16:15 40.75450 -73.43945 15460 ft 415 kts 37°
2026-05-08 16:16 40.77651 -73.41484 16087 ft 410 kts 23°
2026-05-08 16:16 40.80222 -73.40228 16688 ft 392 kts
2026-05-08 16:16 40.82919 -73.39939 17376 ft 389 kts 354°
2026-05-08 16:16 40.85658 -73.39791 17975 ft 395 kts 354°
2026-05-08 16:17 40.88399 -73.39595 18565 ft 400 kts 355°
2026-05-08 16:17 40.90236 -73.39424 18983 ft 404 kts 355°
2026-05-08 16:17 40.94013 -73.38999 19844 ft 408 kts 356°
2026-05-08 16:17 40.96838 -73.38639 20464 ft 412 kts 356°
2026-05-08 16:18 40.99715 -73.38254 21030 ft 416 kts 356°
2026-05-08 16:18 41.02620 -73.37852 21591 ft 420 kts 356°
2026-05-08 16:18 41.05520 -73.37444 22185 ft 423 kts 356°
2026-05-08 16:18 41.08446 -73.37028 22731 ft 427 kts 356°
2026-05-08 16:19 41.11391 -73.36607 23224 ft 431 kts 356°
2026-05-08 16:19 41.14389 -73.36178 23773 ft 434 kts 356°
2026-05-08 16:19 41.17390 -73.35746 24282 ft 438 kts 356°
2026-05-08 16:19 41.20459 -73.35306 24788 ft 441 kts 356°
2026-05-08 16:20 41.23507 -73.34866 25299 ft 444 kts 356°
2026-05-08 16:20 41.26570 -73.34424 25743 ft 447 kts 356°
2026-05-08 16:20 41.29655 -73.33977 26176 ft 451 kts 356°
2026-05-08 16:20 41.32794 -73.33524 26627 ft 453 kts 356°
2026-05-08 16:21 41.35907 -73.33070 27090 ft 455 kts 356°
2026-05-08 16:21 41.39146 -73.32602 27501 ft 458 kts 356°
2026-05-08 16:21 41.42360 -73.32130 27888 ft 463 kts 357°
2026-05-08 16:21 41.45558 -73.31180 28256 ft 482 kts
2026-05-08 16:22 41.48687 -73.29366 28771 ft 498 kts 19°
2026-05-08 16:22 41.51580 -73.26711 29405 ft 511 kts 31°
2026-05-08 16:22 41.54171 -73.23450 29996 ft 516 kts 35°
2026-05-08 16:22 41.56693 -73.20129 30559 ft 508 kts 32°
2026-05-08 16:23 41.59464 -73.17309 30949 ft 495 kts 22°
2026-05-08 16:23 41.62431 -73.15164 31342 ft 481 kts 13°
2026-05-08 16:23 41.65547 -73.13646 31737 ft 468 kts
2026-05-08 16:23 41.68664 -73.12758 32038 ft 456 kts 357°
2026-05-08 16:24 41.71778 -73.12440 32340 ft 445 kts 349°
2026-05-08 16:24 41.74850 -73.12653 32609 ft 436 kts 343°
2026-05-08 16:24 41.77873 -73.13146 32870 ft 437 kts 342°
2026-05-08 16:24 41.80861 -73.13673 33169 ft 437 kts 342°
2026-05-08 16:25 41.83885 -73.14207 33492 ft 437 kts 342°
2026-05-08 16:25 41.86881 -73.14733 33758 ft 438 kts 343°
2026-05-08 16:25 41.89894 -73.15256 34056 ft 439 kts 342°
2026-05-08 16:25 41.92934 -73.15781 34335 ft 440 kts 343°
2026-05-08 16:26 41.95946 -73.16298 34627 ft 440 kts 343°
2026-05-08 16:26 41.99003 -73.16825 34856 ft 442 kts 343°
2026-05-08 16:26 42.02041 -73.17351 35115 ft 443 kts 343°
2026-05-08 16:26 42.05117 -73.17875 35351 ft 444 kts 343°
2026-05-08 16:27 42.08168 -73.18400 35581 ft 445 kts 344°
2026-05-08 16:27 42.11223 -73.18926 35820 ft 445 kts 344°
2026-05-08 16:27 42.14312 -73.19459 36036 ft 446 kts 344°
2026-05-08 16:27 42.17402 -73.19989 36243 ft 447 kts 345°
2026-05-08 16:28 42.20454 -73.20514 36435 ft 448 kts 345°
2026-05-08 16:28 42.23583 -73.21054 36587 ft 451 kts 345°
2026-05-08 16:28 42.26669 -73.21588 36778 ft 451 kts 345°
2026-05-08 16:28 42.29802 -73.22128 36859 ft 453 kts 345°
2026-05-08 16:29 42.36027 -73.23202 36873 ft 452 kts 345°
2026-05-08 16:29 42.42266 -73.24287 36878 ft 454 kts 345°
2026-05-08 16:30 42.48587 -73.25153 36876 ft 462 kts 354°
2026-05-08 16:30 42.51800 -73.24699 36881 ft 473 kts
2026-05-08 16:30 42.55014 -73.23436 36884 ft 484 kts 15°
2026-05-08 16:31 42.58033 -73.21397 36886 ft 495 kts 25°
2026-05-08 16:31 42.60813 -73.18553 36881 ft 505 kts 37°
2026-05-08 16:31 42.63176 -73.15006 36884 ft 513 kts 49°
2026-05-08 16:31 42.65112 -73.10852 36888 ft 518 kts 56°
2026-05-08 16:32 42.68612 -73.02337 36882 ft 519 kts 57°
2026-05-08 16:32 42.72111 -72.93778 36858 ft 518 kts 56°
2026-05-08 16:33 42.75640 -72.85234 36849 ft 519 kts 56°
2026-05-08 16:33 42.79156 -72.76746 36849 ft 518 kts 56°
2026-05-08 16:34 42.82698 -72.68197 36843 ft 518 kts 56°
2026-05-08 16:34 42.86223 -72.59663 36839 ft 519 kts 56°
2026-05-08 16:35 42.89730 -72.51137 36849 ft 518 kts 57°
2026-05-08 16:35 42.93229 -72.42616 36853 ft 518 kts 56°
2026-05-08 16:36 42.96733 -72.34055 36845 ft 519 kts 57°
2026-05-08 16:36 43.00245 -72.25449 36837 ft 519 kts 57°
2026-05-08 16:37 43.03744 -72.16845 36837 ft 518 kts 57°
2026-05-08 16:37 43.07239 -72.08234 36833 ft 518 kts 57°
2026-05-08 16:38 43.10704 -71.99667 36824 ft 518 kts 58°
2026-05-08 16:38 43.14194 -71.91013 36824 ft 519 kts 58°
2026-05-08 16:39 43.17670 -71.82361 36828 ft 517 kts 58°
2026-05-08 16:39 43.21104 -71.73790 36830 ft 517 kts 58°
2026-05-08 16:40 43.24545 -71.65180 36833 ft 516 kts 58°
2026-05-08 16:40 43.27980 -71.56562 36834 ft 516 kts 58°
2026-05-08 16:41 43.31417 -71.47908 36834 ft 517 kts 58°
2026-05-08 16:42 43.36538 -71.34963 36824 ft 516 kts 59°
2026-05-08 16:42 43.39936 -71.26347 36817 ft 516 kts 59°
2026-05-08 16:43 43.43349 -71.17667 36812 ft 516 kts 59°
2026-05-08 16:43 43.46725 -71.09045 36814 ft 516 kts 59°
2026-05-08 16:44 43.50117 -71.00365 36808 ft 515 kts 59°
2026-05-08 16:44 43.53507 -70.91663 36806 ft 515 kts 59°
2026-05-08 16:45 43.56848 -70.83054 36810 ft 514 kts 59°
2026-05-08 16:45 43.60223 -70.74337 36812 ft 516 kts 59°
2026-05-08 16:46 43.63582 -70.65630 36817 ft 515 kts 59°
2026-05-08 16:46 43.66920 -70.56952 36816 ft 515 kts 59°
2026-05-08 16:47 43.70275 -70.48206 36817 ft 516 kts 60°
2026-05-08 16:47 43.73597 -70.39515 36814 ft 516 kts 59°
2026-05-08 16:48 43.76930 -70.30766 36809 ft 515 kts 60°
2026-05-08 16:48 43.80257 -70.22012 36810 ft 515 kts 60°
2026-05-08 16:49 43.83585 -70.13225 36807 ft 515 kts 60°
2026-05-08 16:49 43.86878 -70.04502 36812 ft 515 kts 60°
2026-05-08 16:50 43.90192 -69.95696 36806 ft 515 kts 61°
2026-05-08 16:50 43.93513 -69.86847 36807 ft 516 kts 61°
2026-05-08 16:51 43.96859 -69.77894 36803 ft 516 kts 61°
2026-05-08 16:51 44.00146 -69.69082 36800 ft 516 kts 61°
2026-05-08 16:52 44.03422 -69.60265 36794 ft 516 kts 61°
2026-05-08 16:52 44.06701 -69.51412 36787 ft 516 kts 61°
2026-05-08 16:53 44.11613 -69.38097 36778 ft 517 kts 61°
2026-05-08 16:53 44.14880 -69.29212 36777 ft 517 kts 62°
2026-05-08 16:54 44.18118 -69.20374 36779 ft 517 kts 62°
2026-05-08 16:54 44.21375 -69.11450 36780 ft 517 kts 62°
2026-05-08 16:55 44.24611 -69.02557 36778 ft 517 kts 62°
2026-05-08 16:55 44.27853 -68.93622 36777 ft 517 kts 62°
2026-05-08 16:56 44.31089 -68.84675 36777 ft 517 kts 62°
2026-05-08 16:56 44.34307 -68.75742 36777 ft 518 kts 62°
2026-05-08 16:57 44.37522 -68.66791 36776 ft 517 kts 62°
2026-05-08 16:57 44.40750 -68.57776 36776 ft 517 kts 62°
2026-05-08 16:58 44.43944 -68.48827 36779 ft 517 kts 63°
2026-05-08 16:58 44.47134 -68.39857 36782 ft 516 kts 63°
2026-05-08 16:59 44.50318 -68.30875 36782 ft 517 kts 63°
2026-05-08 16:59 44.53503 -68.21863 36779 ft 516 kts 63°
2026-05-08 17:00 44.56663 -68.12890 36778 ft 516 kts 63°
2026-05-08 17:00 44.59815 -68.03909 36771 ft 515 kts 63°
2026-05-08 17:01 44.62952 -67.94942 36769 ft 515 kts 63°
2026-05-08 17:01 44.66110 -67.85892 36763 ft 516 kts 64°
2026-05-08 17:02 44.69231 -67.76908 36759 ft 516 kts 64°
2026-05-08 17:02 44.72349 -67.67904 36757 ft 515 kts 64°
2026-05-08 17:03 44.75487 -67.58817 36755 ft 515 kts 64°
2026-05-08 17:03 44.78592 -67.49789 36753 ft 515 kts 64°
2026-05-08 17:04 44.81696 -67.40732 36753 ft 515 kts 64°
2026-05-08 17:04 44.84787 -67.31685 36749 ft 514 kts 65°
2026-05-08 17:05 44.87889 -67.22656 36745 ft 514 kts 63°
2026-05-08 17:05 44.91479 -67.13982 36746 ft 515 kts 56°
2026-05-08 17:06 44.95733 -67.05898 36745 ft 516 kts 50°
2026-05-08 17:06 45.00258 -66.98016 36736 ft 516 kts 50°
2026-05-08 17:07 45.04745 -66.90185 36728 ft 515 kts 50°
2026-05-08 17:07 45.09252 -66.82266 36725 ft 516 kts 51°
2026-05-08 17:08 45.13714 -66.74387 36724 ft 515 kts 51°
2026-05-08 17:08 45.18164 -66.66502 36728 ft 515 kts 51°
2026-05-08 17:09 45.22615 -66.58591 36729 ft 515 kts 51°
2026-05-08 17:09 45.27056 -66.50675 36730 ft 515 kts 51°
2026-05-08 17:10 45.31523 -66.42692 36729 ft 516 kts 51°
2026-05-08 17:10 45.35960 -66.34737 36724 ft 515 kts 51°
2026-05-08 17:11 45.40371 -66.26814 36719 ft 515 kts 52°
2026-05-08 17:11 45.44794 -66.18838 36715 ft 515 kts 52°
2026-05-08 17:12 45.49221 -66.10839 36709 ft 515 kts 52°
2026-05-08 17:12 45.53639 -66.02831 36710 ft 515 kts 52°
2026-05-08 17:13 45.58057 -65.94798 36711 ft 516 kts 52°
2026-05-08 17:13 45.62465 -65.86764 36716 ft 516 kts 52°
2026-05-08 17:14 45.66871 -65.78713 36712 ft 516 kts 52°
2026-05-08 17:14 45.71272 -65.70640 36710 ft 516 kts 52°
2026-05-08 17:15 45.75652 -65.62586 36703 ft 516 kts 52°
2026-05-08 17:15 45.80041 -65.54495 36700 ft 516 kts 52°
2026-05-08 17:16 45.84411 -65.46413 36697 ft 516 kts 52°
2026-05-08 17:16 45.88778 -65.38314 36693 ft 516 kts 53°
2026-05-08 17:17 45.93156 -65.30177 36688 ft 516 kts 53°
2026-05-08 17:17 45.97543 -65.21992 36688 ft 516 kts 53°
2026-05-08 17:18 46.01909 -65.13823 36693 ft 516 kts 54°
2026-05-08 17:18 46.06253 -65.05669 36690 ft 516 kts 53°
2026-05-08 17:19 46.10616 -64.97459 36692 ft 516 kts 54°
2026-05-08 17:19 46.14963 -64.89257 36691 ft 516 kts 54°
2026-05-08 17:20 46.19297 -64.81057 36688 ft 516 kts 54°
2026-05-08 17:20 46.23614 -64.72861 36690 ft 516 kts 54°
2026-05-08 17:21 46.27956 -64.64595 36689 ft 516 kts 54°
2026-05-08 17:21 46.32261 -64.56370 36689 ft 517 kts 54°
2026-05-08 17:22 46.36563 -64.48132 36689 ft 517 kts 54°
2026-05-08 17:22 46.40899 -64.39807 36685 ft 517 kts 54°
2026-05-08 17:23 46.45207 -64.31509 36681 ft 517 kts 56°
2026-05-08 17:23 46.49524 -64.23171 36671 ft 517 kts 56°
2026-05-08 17:24 46.53801 -64.14881 36683 ft 516 kts 56°
2026-05-08 17:24 46.58077 -64.06567 36684 ft 516 kts 56°
2026-05-08 17:25 46.62353 -63.98228 36680 ft 516 kts 56°
2026-05-08 17:25 46.66653 -63.89822 36680 ft 516 kts 56°
2026-05-08 17:26 46.70916 -63.81460 36686 ft 516 kts 56°
2026-05-08 17:26 46.75173 -63.73086 36686 ft 516 kts 56°
2026-05-08 17:27 46.79429 -63.64686 36695 ft 516 kts 56°
2026-05-08 17:27 46.83675 -63.56280 36689 ft 517 kts 56°
2026-05-08 17:28 46.87999 -63.47697 36689 ft 518 kts 56°
2026-05-08 17:28 46.92278 -63.39173 36688 ft 518 kts 56°
2026-05-08 17:29 46.96574 -63.30593 36699 ft 518 kts 57°
2026-05-08 17:29 47.00854 -63.22013 36697 ft 518 kts 57°
2026-05-08 17:30 47.05078 -63.13526 36692 ft 518 kts 57°
2026-05-08 17:30 47.09365 -63.04884 36689 ft 518 kts 58°
2026-05-08 17:31 47.13664 -62.96186 36694 ft 520 kts 58°
2026-05-08 17:31 47.17925 -62.87543 36691 ft 519 kts 58°
2026-05-08 17:32 47.22147 -62.78948 36691 ft 520 kts 58°
2026-05-08 17:32 47.26386 -62.70293 36684 ft 520 kts 58°
2026-05-08 17:33 47.30600 -62.61661 36688 ft 521 kts 58°
2026-05-08 17:33 47.34818 -62.52999 36684 ft 520 kts 59°
2026-05-08 17:34 47.39047 -62.44288 36680 ft 521 kts 59°
2026-05-08 17:34 47.43251 -62.35589 36689 ft 521 kts 59°
2026-05-08 17:35 47.47473 -62.26836 36696 ft 522 kts 60°
2026-05-08 17:35 47.51666 -62.18111 36701 ft 521 kts 60°
2026-05-08 17:36 47.55862 -62.09347 36703 ft 522 kts 60°
2026-05-08 17:36 47.60053 -62.00573 36699 ft 522 kts 60°
2026-05-08 17:37 47.64240 -61.91777 36694 ft 521 kts 60°
2026-05-08 17:37 47.68400 -61.83006 36695 ft 522 kts 60°
2026-05-08 17:38 47.72578 -61.74171 36687 ft 523 kts 61°
2026-05-08 17:38 47.76717 -61.65388 36698 ft 523 kts 60°
2026-05-08 17:39 47.80878 -61.56530 36697 ft 525 kts 61°
2026-05-08 17:39 47.85072 -61.47581 36687 ft 525 kts 61°
2026-05-08 17:40 47.89209 -61.38719 36695 ft 524 kts 61°
2026-05-08 17:40 47.93386 -61.29737 36692 ft 525 kts 62°
2026-05-08 17:41 47.97529 -61.20804 36655 ft 526 kts 62°
2026-05-08 17:41 48.01674 -61.11836 36677 ft 527 kts 62°
2026-05-08 17:42 48.05829 -61.02824 36693 ft 526 kts 63°
2026-05-08 17:42 48.09967 -60.93820 36688 ft 526 kts 63°
2026-05-08 17:43 48.14126 -60.84725 36672 ft 527 kts 63°
2026-05-08 17:43 48.18258 -60.75664 36682 ft 529 kts 63°
2026-05-08 17:44 48.22389 -60.66581 36689 ft 530 kts 63°
2026-05-08 17:44 48.26521 -60.57467 36692 ft 530 kts 63°
2026-05-08 17:45 48.30642 -60.48341 36695 ft 529 kts 63°
2026-05-08 17:45 48.34772 -60.39182 36709 ft 527 kts 64°
2026-05-08 17:46 48.38860 -60.30053 36695 ft 528 kts 64°
2026-05-08 17:46 48.42956 -60.20897 36689 ft 527 kts 65°
2026-05-08 17:47 48.47037 -60.11734 36705 ft 528 kts 65°
2026-05-08 17:47 48.50413 -60.04143 36685 ft 527 kts 65°
2026-05-08 17:48 48.55174 -59.93384 36680 ft 527 kts 65°
2026-05-08 17:48 48.59226 -59.84195 36684 ft 529 kts 66°
2026-05-08 17:49 48.63297 -59.74931 36693 ft 528 kts 66°
2026-05-08 17:49 48.67353 -59.65668 36664 ft 530 kts 65°
2026-05-08 17:50 48.71429 -59.56332 36691 ft 530 kts 65°
2026-05-08 17:50 48.75477 -59.47039 36679 ft 529 kts 66°
2026-05-08 17:51 48.79518 -59.37709 36670 ft 531 kts 65°
2026-05-08 17:51 48.83563 -59.28365 36677 ft 528 kts 67°
2026-05-08 17:52 48.87597 -59.18987 36671 ft 530 kts 67°
2026-05-08 17:53 48.93631 -59.04903 36663 ft 531 kts 67°
2026-05-08 17:53 48.97673 -58.95420 36670 ft 533 kts 67°
2026-05-08 17:54 49.01694 -58.85957 36682 ft 534 kts 67°
2026-05-08 17:54 49.05741 -58.76416 36677 ft 533 kts 67°
2026-05-08 17:55 49.09710 -58.67022 36667 ft 531 kts 67°
2026-05-08 17:55 49.13702 -58.57531 36657 ft 531 kts 68°
2026-05-08 17:56 49.17711 -58.47960 36660 ft 532 kts 68°
2026-05-08 17:56 49.21663 -58.38499 36654 ft 533 kts 68°
2026-05-08 17:57 49.25637 -58.28952 36642 ft 532 kts 69°
2026-05-08 17:57 49.29588 -58.19430 36650 ft 530 kts 68°
2026-05-08 17:58 49.33558 -58.09797 36631 ft 536 kts 68°
2026-05-08 17:58 49.37537 -58.00154 36615 ft 534 kts 68°
2026-05-08 17:59 49.41483 -57.90543 36613 ft 533 kts 68°
2026-05-08 17:59 49.45435 -57.80866 36616 ft 537 kts 68°
2026-05-08 18:00 49.49385 -57.71164 36613 ft 537 kts 68°
2026-05-08 18:00 49.55300 -57.56598 36604 ft 536 kts 69°
2026-05-08 18:01 49.59225 -57.46872 36607 ft 533 kts 68°
2026-05-08 18:01 49.63153 -57.37093 36606 ft 535 kts 68°
2026-05-08 18:02 49.66406 -57.28982 36612 ft 534 kts 69°
2026-05-08 18:02 49.70931 -57.17636 36624 ft 536 kts 69°
2026-05-08 18:03 49.74816 -57.07856 36627 ft 538 kts 68°
2026-05-08 18:03 49.78725 -56.98004 36631 ft 536 kts 69°
2026-05-08 18:04 49.82628 -56.88121 36629 ft 536 kts 68°
2026-05-08 18:04 49.86474 -56.78328 36632 ft 538 kts 68°
2026-05-08 18:05 49.90351 -56.68436 36635 ft 537 kts 68°
2026-05-08 18:05 49.94197 -56.58587 36638 ft 538 kts 68°
2026-05-08 18:06 49.98048 -56.48683 36641 ft 538 kts 68°
2026-05-08 18:06 50.01909 -56.38715 36641 ft 538 kts 68°
2026-05-08 18:07 50.05770 -56.28704 36644 ft 537 kts 69°
2026-05-08 18:07 50.09587 -56.18772 36644 ft 536 kts 69°
2026-05-08 18:08 50.13392 -56.08832 36650 ft 535 kts 69°
2026-05-08 18:08 50.17171 -55.98919 36656 ft 534 kts 69°
2026-05-08 18:09 50.20973 -55.88911 36664 ft 536 kts 69°
2026-05-08 18:09 50.24757 -55.78917 36663 ft 536 kts 69°
2026-05-08 18:10 50.28542 -55.68867 36659 ft 538 kts 69°
2026-05-08 18:10 50.32315 -55.58815 36654 ft 539 kts 68°
2026-05-08 18:11 50.36113 -55.48687 36649 ft 538 kts 69°
2026-05-08 18:11 50.39880 -55.38574 36647 ft 538 kts 68°
2026-05-08 18:12 50.43615 -55.28512 36653 ft 538 kts 69°
2026-05-08 18:12 50.47379 -55.18348 36649 ft 536 kts 69°
2026-05-08 18:13 50.51093 -55.08256 36656 ft 538 kts 69°
2026-05-08 18:13 50.54812 -54.98105 36663 ft 537 kts 69°
2026-05-08 18:14 50.58537 -54.87925 36665 ft 536 kts 69°
2026-05-08 18:14 50.62244 -54.77739 36661 ft 536 kts 68°
2026-05-08 18:15 50.65942 -54.67524 36660 ft 535 kts 68°
2026-05-08 18:15 50.69647 -54.57268 36662 ft 536 kts 68°
2026-05-08 18:16 50.73316 -54.47070 36659 ft 536 kts 68°
2026-05-08 18:16 50.76961 -54.36892 36666 ft 536 kts 68°
2026-05-08 18:17 50.80620 -54.26649 36664 ft 534 kts 69°
2026-05-08 18:17 50.84262 -54.16399 36663 ft 533 kts 69°
2026-05-08 18:18 50.86058 -54.11327 36984 ft 533 kts 68°
2026-05-08 18:18 50.87853 -54.06247 36764 ft 533 kts 69°
2026-05-08 18:18 50.91446 -53.96041 36670 ft 534 kts 69°
2026-05-08 18:19 50.95056 -53.85770 36664 ft 532 kts 69°
2026-05-08 18:19 50.98632 -53.75546 36664 ft 530 kts 68°
2026-05-08 18:20 51.02207 -53.65272 36665 ft 531 kts 69°
2026-05-08 18:20 51.05754 -53.55046 36663 ft 531 kts 68°
2026-05-08 18:21 51.09291 -53.44805 36663 ft 530 kts 68°
2026-05-08 18:21 51.12809 -53.34580 36662 ft 530 kts 69°
2026-05-08 18:22 51.16305 -53.24303 36668 ft 526 kts 71°
2026-05-08 18:22 51.19334 -53.13820 36828 ft 522 kts 74°
2026-05-08 18:23 51.20772 -53.08547 37234 ft 521 kts 75°
2026-05-08 18:23 51.22212 -53.03247 37618 ft 521 kts 75°
2026-05-08 18:23 51.23646 -52.97961 37890 ft 522 kts 74°
2026-05-08 18:23 51.25090 -52.92648 38081 ft 524 kts 74°
2026-05-08 18:24 51.26545 -52.87287 38306 ft 525 kts 74°
2026-05-08 18:24 51.27996 -52.81940 38519 ft 527 kts 74°
2026-05-08 18:24 51.29445 -52.76588 38676 ft 529 kts 73°
2026-05-08 18:24 51.30904 -52.71198 38683 ft 531 kts 73°
2026-05-08 18:25 51.33812 -52.60436 38688 ft 530 kts 74°
2026-05-08 18:25 51.36720 -52.49604 38690 ft 530 kts 74°
2026-05-08 18:26 51.39604 -52.38817 38692 ft 529 kts 73°
2026-05-08 18:26 51.42466 -52.28059 38696 ft 528 kts 74°
2026-05-08 18:27 51.44861 -52.19020 38698 ft 528 kts 74°
2026-05-08 18:27 51.48187 -52.06390 38700 ft 528 kts 74°
2026-05-08 18:28 51.51025 -51.95570 38702 ft 528 kts 74°
2026-05-08 18:28 51.53852 -51.84726 38704 ft 528 kts 74°
2026-05-08 18:29 51.56692 -51.73786 38710 ft 529 kts 73°
2026-05-08 18:29 51.59513 -51.62865 38713 ft 530 kts 73°
2026-05-08 18:30 51.62316 -51.51964 38721 ft 531 kts 73°
2026-05-08 18:30 51.65122 -51.41004 38725 ft 530 kts 73°
2026-05-08 18:31 51.67915 -51.30041 38728 ft 529 kts 74°
2026-05-08 18:31 51.70686 -51.19113 38736 ft 528 kts 74°
2026-05-08 18:32 51.73445 -51.08155 38734 ft 529 kts 73°
2026-05-08 18:32 51.76194 -50.97215 38743 ft 529 kts 73°
2026-05-08 18:33 51.78937 -50.86230 38747 ft 528 kts 73°
2026-05-08 18:33 51.81678 -50.75204 38747 ft 528 kts 73°
2026-05-08 18:34 51.84385 -50.64247 38744 ft 527 kts 73°
2026-05-08 18:34 51.87104 -50.53176 38745 ft 529 kts 73°
2026-05-08 18:35 51.89821 -50.42072 38750 ft 530 kts 73°
2026-05-08 18:35 51.92537 -50.30936 38751 ft 529 kts 74°
2026-05-08 18:36 51.95222 -50.19846 38754 ft 530 kts 73°
2026-05-08 18:36 51.97906 -50.08707 38756 ft 530 kts 73°
2026-05-08 18:37 52.00567 -49.97649 38752 ft 529 kts 72°
2026-05-08 18:37 52.03370 -49.86507 38754 ft 529 kts 72°
2026-05-08 18:38 52.06157 -49.75466 38750 ft 530 kts 72°
2026-05-08 18:38 52.08926 -49.64408 38756 ft 530 kts 71°
2026-05-08 18:39 52.11689 -49.53291 38758 ft 530 kts 72°
2026-05-08 18:39 52.14448 -49.42122 38764 ft 531 kts 71°
2026-05-08 18:40 52.17174 -49.31038 38788 ft 531 kts 73°
2026-05-08 18:40 52.19913 -49.19835 38788 ft 532 kts 72°
2026-05-08 18:41 52.22623 -49.08695 38788 ft 532 kts 72°
2026-05-08 18:41 52.25344 -48.97459 38798 ft 531 kts 72°
2026-05-08 18:42 52.28033 -48.86295 38800 ft 531 kts 72°
2026-05-08 18:42 52.30712 -48.75122 38806 ft 530 kts 72°
2026-05-08 18:43 52.33382 -48.63911 38807 ft 530 kts 71°
2026-05-08 18:43 52.36066 -48.52602 38817 ft 529 kts 72°
2026-05-08 18:44 52.38703 -48.41420 38826 ft 528 kts 71°
2026-05-08 18:44 52.41331 -48.30219 38832 ft 528 kts 72°
2026-05-08 18:45 52.43948 -48.19019 38842 ft 527 kts 72°
2026-05-08 18:45 52.46542 -48.07842 38853 ft 527 kts 72°
2026-05-08 18:46 52.49118 -47.96675 38852 ft 527 kts 72°
2026-05-08 18:46 52.51695 -47.85464 38858 ft 526 kts 72°
2026-05-08 18:47 52.54262 -47.74234 38858 ft 527 kts 71°
2026-05-08 18:47 52.56816 -47.62998 38868 ft 526 kts 71°
2026-05-08 18:48 52.59349 -47.51805 38863 ft 527 kts 71°
2026-05-08 18:48 52.61882 -47.40545 38873 ft 525 kts 71°
2026-05-08 18:49 52.64411 -47.29246 38876 ft 524 kts 71°
2026-05-08 18:49 52.66911 -47.18018 38880 ft 524 kts 72°
2026-05-08 18:50 52.69400 -47.06764 38894 ft 524 kts 72°
2026-05-08 18:50 52.71874 -46.95528 38905 ft 524 kts 71°
2026-05-08 18:51 52.74345 -46.84251 38915 ft 523 kts 71°
2026-05-08 18:51 52.76802 -46.72965 38919 ft 523 kts 71°
2026-05-08 18:52 52.79243 -46.61704 38926 ft 521 kts 71°
2026-05-08 18:52 52.81663 -46.50463 38933 ft 521 kts 71°
2026-05-08 18:53 52.84094 -46.39113 38935 ft 521 kts 71°
2026-05-08 18:53 52.86497 -46.27844 38938 ft 519 kts 71°
2026-05-08 18:54 52.88874 -46.16615 38936 ft 518 kts 71°
2026-05-08 18:54 52.91237 -46.05396 38945 ft 518 kts 71°
2026-05-08 18:55 52.94776 -45.88472 38964 ft 517 kts 71°
2026-05-08 18:56 52.97112 -45.77237 38973 ft 517 kts 71°
2026-05-08 18:56 52.99423 -45.66050 38984 ft 515 kts 71°
2026-05-08 18:57 53.01724 -45.54854 38987 ft 514 kts 71°
2026-05-08 18:57 53.04013 -45.43638 38997 ft 513 kts 70°
2026-05-08 18:58 53.06285 -45.32457 39004 ft 512 kts 71°
2026-05-08 18:58 53.08552 -45.21237 39013 ft 510 kts 71°
2026-05-08 18:59 53.10788 -45.10097 39022 ft 509 kts 71°
2026-05-08 18:59 53.13024 -44.98902 39034 ft 508 kts 71°
2026-05-08 19:00 53.14878 -44.89563 39038 ft 508 kts 71°
2026-05-08 19:00 53.17439 -44.76588 39040 ft 508 kts 71°
2026-05-08 19:01 53.19624 -44.65450 39047 ft 507 kts 71°
2026-05-08 19:01 53.21798 -44.54306 39055 ft 507 kts 71°
2026-05-08 19:02 53.23959 -44.43163 39063 ft 506 kts 71°
2026-05-08 19:02 53.26112 -44.32007 39066 ft 506 kts 71°
2026-05-08 19:03 53.28264 -44.20790 39075 ft 507 kts 71°
2026-05-08 19:03 53.30400 -44.09578 39081 ft 507 kts 71°
2026-05-08 19:04 53.32518 -43.98391 39088 ft 506 kts 71°
2026-05-08 19:04 53.34618 -43.87241 39092 ft 505 kts 71°
2026-05-08 19:05 53.36720 -43.76025 39099 ft 505 kts 71°
2026-05-08 19:05 53.38806 -43.64805 39107 ft 504 kts 71°
2026-05-08 19:06 53.40878 -43.53601 39118 ft 505 kts 70°
2026-05-08 19:06 53.42941 -43.42390 39120 ft 504 kts 70°
2026-05-08 19:07 53.44989 -43.31182 39133 ft 503 kts 71°
2026-05-08 19:07 53.47013 -43.20034 39141 ft 503 kts 71°
2026-05-08 19:08 53.49030 -43.08863 39143 ft 503 kts 71°
2026-05-08 19:08 53.51047 -42.97625 39156 ft 502 kts 71°
2026-05-08 19:09 53.53056 -42.86359 39165 ft 502 kts 70°
2026-05-08 19:09 53.55040 -42.75171 39165 ft 501 kts 70°
2026-05-08 19:10 53.57013 -42.63968 39174 ft 501 kts 70°
2026-05-08 19:10 53.58982 -42.52714 39178 ft 501 kts 70°
2026-05-08 19:11 53.60939 -42.41465 39182 ft 500 kts 70°
2026-05-08 19:11 53.62873 -42.30283 39187 ft 500 kts 71°
2026-05-08 19:12 53.64792 -42.19101 39194 ft 500 kts 71°
2026-05-08 19:12 53.66709 -42.07865 39199 ft 499 kts 70°
2026-05-08 19:13 53.68610 -41.96658 39208 ft 498 kts 70°
2026-05-08 19:13 53.70485 -41.85528 39214 ft 496 kts 70°
2026-05-08 19:14 53.72363 -41.74311 39217 ft 496 kts 70°
2026-05-08 19:14 53.74209 -41.63200 39226 ft 495 kts 70°
2026-05-08 19:15 53.76053 -41.52047 39231 ft 495 kts 70°
2026-05-08 19:15 53.77890 -41.40866 39238 ft 494 kts 70°
2026-05-08 19:16 53.79711 -41.29701 39244 ft 494 kts 71°
2026-05-08 19:16 53.81530 -41.18472 39245 ft 494 kts 71°
2026-05-08 19:17 53.83340 -41.07219 39256 ft 492 kts 70°
2026-05-08 19:17 53.85124 -40.96067 39258 ft 492 kts 70°
2026-05-08 19:18 53.86886 -40.84969 39248 ft 491 kts 70°
2026-05-08 19:18 53.88643 -40.73835 39254 ft 490 kts 70°
2026-05-08 19:19 53.90389 -40.62704 39275 ft 490 kts 70°
2026-05-08 19:19 53.92125 -40.51558 39281 ft 490 kts 70°
2026-05-08 19:20 53.93836 -40.40470 39287 ft 489 kts 70°
2026-05-08 19:20 53.95550 -40.29314 39289 ft 490 kts 70°
2026-05-08 19:21 53.97247 -40.18180 39296 ft 490 kts 70°
2026-05-08 19:21 53.98938 -40.07023 39299 ft 490 kts 70°
2026-05-08 19:22 54.00607 -39.95829 39304 ft 489 kts 71°
2026-05-08 19:22 54.02216 -39.84650 39305 ft 488 kts 71°
2026-05-08 19:23 54.03798 -39.73496 39311 ft 486 kts 70°
2026-05-08 19:23 54.05385 -39.62278 39312 ft 485 kts 70°
2026-05-08 19:24 54.06941 -39.51205 39319 ft 484 kts 70°
2026-05-08 19:24 54.08497 -39.40048 39325 ft 482 kts 70°
2026-05-08 19:25 54.10024 -39.29031 39331 ft 482 kts 71°
2026-05-08 19:25 54.11549 -39.17950 39345 ft 482 kts 71°
2026-05-08 19:26 54.13067 -39.06832 39356 ft 481 kts 71°
2026-05-08 19:26 54.14561 -38.95790 39361 ft 479 kts 70°
2026-05-08 19:27 54.16051 -38.84718 39366 ft 480 kts 70°
2026-05-08 19:27 54.17534 -38.73617 39369 ft 479 kts 70°
2026-05-08 19:28 54.18997 -38.62565 39371 ft 477 kts 70°
2026-05-08 19:28 54.20448 -38.51523 39381 ft 476 kts 70°
2026-05-08 19:29 54.21878 -38.40557 39382 ft 476 kts 70°
2026-05-08 19:29 54.23307 -38.29523 39384 ft 475 kts 71°
2026-05-08 19:30 54.24724 -38.18491 39391 ft 476 kts 71°
2026-05-08 19:30 54.26129 -38.07454 39399 ft 474 kts 71°
2026-05-08 19:31 54.27517 -37.96481 39401 ft 472 kts 71°
2026-05-08 19:31 54.28887 -37.85545 39409 ft 471 kts 70°
2026-05-08 19:32 54.30243 -37.74660 39410 ft 472 kts 70°
2026-05-08 19:32 54.31595 -37.63715 39419 ft 472 kts 70°
2026-05-08 19:33 54.32928 -37.52814 39413 ft 469 kts 70°
2026-05-08 19:33 54.34256 -37.41904 39417 ft 471 kts 70°
2026-05-08 19:34 54.35580 -37.30912 39415 ft 469 kts 71°
2026-05-08 19:34 54.36883 -37.20009 39423 ft 470 kts 70°
2026-05-08 19:35 54.38179 -37.09081 39426 ft 468 kts 70°
2026-05-08 19:35 54.39465 -36.98152 39427 ft 468 kts 71°
2026-05-08 19:36 54.40737 -36.87235 39435 ft 467 kts 70°
2026-05-08 19:36 54.41992 -36.76384 39440 ft 466 kts 70°
2026-05-08 19:37 54.43244 -36.65464 39442 ft 467 kts 70°
2026-05-08 19:37 54.44473 -36.54650 39436 ft 464 kts 70°
2026-05-08 19:38 54.45695 -36.43817 39445 ft 464 kts 70°
2026-05-08 19:38 54.46908 -36.32974 39443 ft 464 kts 71°
2026-05-08 19:39 54.48114 -36.22088 39442 ft 464 kts 70°
2026-05-08 19:39 54.49311 -36.11188 39446 ft 463 kts 70°
2026-05-08 19:40 54.50496 -36.00310 39451 ft 461 kts 70°
2026-05-08 19:40 54.51666 -35.89482 39448 ft 464 kts 70°
2026-05-08 19:41 54.52825 -35.78634 39453 ft 462 kts 70°
2026-05-08 19:41 54.53974 -35.67799 39458 ft 463 kts 70°
2026-05-08 19:42 54.55119 -35.56907 39460 ft 460 kts 70°
2026-05-08 19:42 54.56243 -35.46114 39462 ft 461 kts 70°
2026-05-08 19:43 54.57360 -35.35295 39463 ft 461 kts 70°
2026-05-08 19:43 54.58467 -35.24451 39466 ft 460 kts 70°
2026-05-08 19:44 54.59566 -35.13588 39468 ft 459 kts 70°
2026-05-08 19:44 54.60648 -35.02813 39474 ft 460 kts 70°
2026-05-08 19:45 54.61727 -34.91975 39483 ft 460 kts 70°
2026-05-08 19:45 54.62793 -34.81155 39486 ft 460 kts 70°
2026-05-08 19:46 54.63850 -34.70274 39487 ft 459 kts 70°
2026-05-08 19:46 54.65420 -34.54004 39492 ft 458 kts 70°
2026-05-08 19:47 54.66444 -34.43213 39493 ft 457 kts 70°
2026-05-08 19:47 54.67466 -34.32367 39497 ft 456 kts 70°
2026-05-08 19:48 54.68467 -34.21635 39499 ft 457 kts 70°
2026-05-08 19:48 54.69472 -34.10784 39505 ft 457 kts 70°
2026-05-08 19:49 54.70454 -34.00010 39506 ft 456 kts 70°
2026-05-08 19:49 54.71428 -33.89242 39503 ft 456 kts 70°
2026-05-08 19:50 54.72399 -33.78404 39501 ft 457 kts 70°
2026-05-08 19:50 54.73360 -33.67574 39509 ft 456 kts 70°
2026-05-08 19:51 54.74313 -33.56684 39504 ft 455 kts 70°
2026-05-08 19:51 54.75249 -33.45874 39502 ft 456 kts 70°
2026-05-08 19:52 54.76179 -33.35061 39508 ft 458 kts 70°
2026-05-08 19:52 54.77103 -33.24178 39502 ft 457 kts 70°
2026-05-08 19:53 54.78017 -33.13295 39500 ft 456 kts 70°
2026-05-08 19:53 54.78914 -33.02466 39498 ft 455 kts 70°
2026-05-08 19:54 54.79813 -32.91539 39503 ft 455 kts 70°
2026-05-08 19:54 54.80691 -32.80708 39507 ft 454 kts 70°
2026-05-08 19:55 54.81555 -32.69936 39516 ft 455 kts 70°
2026-05-08 19:55 54.82418 -32.59068 39516 ft 457 kts 70°
2026-05-08 19:56 54.83269 -32.48207 39514 ft 455 kts 70°
2026-05-08 19:56 54.84106 -32.37403 39510 ft 455 kts 71°
2026-05-08 19:57 54.84937 -32.26540 39507 ft 456 kts 71°
2026-05-08 19:57 54.85767 -32.15567 39510 ft 457 kts 71°
2026-05-08 19:58 54.86583 -32.04641 39510 ft 458 kts 71°
2026-05-08 19:58 54.87387 -31.93742 39507 ft 457 kts 71°
2026-05-08 19:59 54.88182 -31.82821 39496 ft 458 kts 71°
2026-05-08 19:59 54.88971 -31.71826 39444 ft 458 kts 71°
2026-05-08 20:00 54.89743 -31.60936 39499 ft 457 kts 71°
2026-05-08 20:00 54.90505 -31.50062 39505 ft 456 kts 71°
2026-05-08 20:01 54.91259 -31.39141 39505 ft 456 kts 71°
2026-05-08 20:01 54.92007 -31.28182 39504 ft 457 kts 71°
2026-05-08 20:02 54.92747 -31.17193 39493 ft 457 kts 72°
2026-05-08 20:02 54.93470 -31.06282 39493 ft 455 kts 72°
2026-05-08 20:03 54.94188 -30.95313 39501 ft 455 kts 71°
2026-05-08 20:03 54.94892 -30.84436 39509 ft 456 kts 72°
2026-05-08 20:04 54.95586 -30.73529 39505 ft 455 kts 72°
2026-05-08 20:04 54.96268 -30.62618 39511 ft 455 kts 72°
2026-05-08 20:05 54.96943 -30.51687 39509 ft 456 kts 72°
2026-05-08 20:05 54.97604 -30.40816 39509 ft 453 kts 72°
2026-05-08 20:06 54.98254 -30.29958 39506 ft 454 kts 72°
2026-05-08 20:06 54.98903 -30.19002 39506 ft 457 kts 73°
2026-05-08 20:07 54.99538 -30.08025 39509 ft 456 kts 73°
2026-05-08 20:07 55.00147 -29.97049 39505 ft 457 kts 74°
2026-05-08 20:08 55.00596 -29.86026 39508 ft 458 kts 75°
2026-05-08 20:08 55.01015 -29.74997 39511 ft 458 kts 75°
2026-05-08 20:09 55.01438 -29.63852 39509 ft 459 kts 75°
2026-05-08 20:09 55.01849 -29.52851 39513 ft 458 kts 75°
2026-05-08 20:10 55.02253 -29.41823 39508 ft 459 kts 75°
2026-05-08 20:10 55.02651 -29.30739 39511 ft 461 kts 76°
2026-05-08 20:11 55.03038 -29.19648 39519 ft 461 kts 76°
2026-05-08 20:11 55.03414 -29.08540 39526 ft 460 kts 76°
2026-05-08 20:12 55.03782 -28.97441 39505 ft 461 kts 76°
2026-05-08 20:12 55.04139 -28.86354 39496 ft 460 kts 76°
2026-05-08 20:13 55.04487 -28.75183 39478 ft 462 kts 76°
2026-05-08 20:13 55.04826 -28.64022 39492 ft 462 kts 76°
2026-05-08 20:14 55.05152 -28.52894 39482 ft 462 kts 76°
2026-05-08 20:14 55.05474 -28.41658 39493 ft 461 kts 76°
2026-05-08 20:15 55.05781 -28.30520 39503 ft 463 kts 77°
2026-05-08 20:15 55.06076 -28.19386 39481 ft 463 kts 77°
2026-05-08 20:16 55.06366 -28.08186 39496 ft 463 kts 77°
2026-05-08 20:16 55.06645 -27.97002 39487 ft 465 kts 77°
2026-05-08 20:17 55.06915 -27.85764 39476 ft 465 kts 77°
2026-05-08 20:17 55.07172 -27.74540 39481 ft 466 kts 77°
2026-05-08 20:18 55.07419 -27.63328 39467 ft 465 kts 78°
2026-05-08 20:18 55.07659 -27.52077 39453 ft 466 kts 78°
2026-05-08 20:19 55.07886 -27.40762 39461 ft 466 kts 78°
2026-05-08 20:19 55.08102 -27.29490 39458 ft 468 kts 79°
2026-05-08 20:20 55.08312 -27.18120 39446 ft 469 kts 79°
2026-05-08 20:20 55.08509 -27.06812 39452 ft 470 kts 79°
2026-05-08 20:21 55.08698 -26.95459 39468 ft 470 kts 80°
2026-05-08 20:21 55.08872 -26.84126 39477 ft 469 kts 80°
2026-05-08 20:22 55.09036 -26.72784 39476 ft 469 kts 80°
2026-05-08 20:22 55.09166 -26.63326 39464 ft 469 kts 80°
2026-05-08 20:23 55.09337 -26.50112 39459 ft 471 kts 80°
2026-05-08 20:23 55.09472 -26.38689 39459 ft 469 kts 80°
2026-05-08 20:24 55.09595 -26.27343 39450 ft 469 kts 81°
2026-05-08 20:24 55.09707 -26.16052 39460 ft 468 kts 81°
2026-05-08 20:25 55.09809 -26.04761 39452 ft 468 kts 82°
2026-05-08 20:25 55.09900 -25.93431 39454 ft 469 kts 81°
2026-05-08 20:26 55.09983 -25.82062 39461 ft 468 kts 82°
2026-05-08 20:26 55.10054 -25.70750 39456 ft 468 kts 82°
2026-05-08 20:27 55.10112 -25.59480 39457 ft 468 kts 82°
2026-05-08 20:27 55.10162 -25.48115 39451 ft 467 kts 82°
2026-05-08 20:28 55.10204 -25.36810 39441 ft 467 kts 82°
2026-05-08 20:28 55.10231 -25.25535 39446 ft 468 kts 83°
2026-05-08 20:29 55.10251 -25.14223 39450 ft 468 kts 83°
2026-05-08 20:29 55.10258 -25.02841 39446 ft 468 kts 83°
2026-05-08 20:30 55.10256 -24.91545 39463 ft 467 kts 83°
2026-05-08 20:30 55.10243 -24.80247 39452 ft 468 kts 83°
2026-05-08 20:31 55.10220 -24.68965 39453 ft 468 kts 83°
2026-05-08 20:31 55.10186 -24.57652 39456 ft 469 kts 83°
2026-05-08 20:32 55.10141 -24.46250 39455 ft 469 kts 83°
2026-05-08 20:32 55.10086 -24.34913 39449 ft 470 kts 84°
2026-05-08 20:33 55.10020 -24.23557 39443 ft 470 kts 84°
2026-05-08 20:33 55.09943 -24.12189 39443 ft 469 kts 84°
2026-05-08 20:34 55.09856 -24.00861 39449 ft 469 kts 84°
2026-05-08 20:35 55.09707 -23.83751 39451 ft 470 kts 84°
2026-05-08 20:35 55.09594 -23.72397 39440 ft 472 kts 85°
2026-05-08 20:36 55.09468 -23.60992 39440 ft 472 kts 85°
2026-05-08 20:36 55.09334 -23.49615 39432 ft 471 kts 85°
2026-05-08 20:37 55.09190 -23.38244 39429 ft 471 kts 85°
2026-05-08 20:37 55.09033 -23.26855 39430 ft 472 kts 86°
2026-05-08 20:38 55.08864 -23.15419 39431 ft 472 kts 86°
2026-05-08 20:38 55.08684 -23.03980 39425 ft 472 kts 86°
2026-05-08 20:39 55.08497 -22.92581 39430 ft 472 kts 86°
2026-05-08 20:39 55.08299 -22.81181 39437 ft 474 kts 86°
2026-05-08 20:40 55.08088 -22.69731 39442 ft 474 kts 86°
2026-05-08 20:40 55.07864 -22.58255 39438 ft 474 kts 86°
2026-05-08 20:41 55.07632 -22.46821 39438 ft 473 kts 86°
2026-05-08 20:41 55.07391 -22.35356 39432 ft 474 kts 87°
2026-05-08 20:42 55.07135 -22.23848 39434 ft 474 kts 88°
2026-05-08 20:42 55.06869 -22.12388 39432 ft 475 kts 88°
2026-05-08 20:43 55.06593 -22.00917 39426 ft 475 kts 88°
2026-05-08 20:43 55.06307 -21.89459 39424 ft 474 kts 88°
2026-05-08 20:44 55.06012 -21.78019 39410 ft 474 kts 88°
2026-05-08 20:44 55.05703 -21.66571 39400 ft 475 kts 88°
2026-05-08 20:45 55.05385 -21.55171 39403 ft 476 kts 88°
2026-05-08 20:45 55.05055 -21.43684 39390 ft 478 kts 88°
2026-05-08 20:46 55.04711 -21.32100 39398 ft 477 kts 89°
2026-05-08 20:46 55.04357 -21.20583 39403 ft 478 kts 89°
2026-05-08 20:47 55.03991 -21.08996 39397 ft 479 kts 89°
2026-05-08 20:47 55.03615 -20.97501 39392 ft 479 kts 89°
2026-05-08 20:48 55.03231 -20.85940 39397 ft 479 kts 89°
2026-05-08 20:48 55.02831 -20.74358 39401 ft 480 kts 89°
2026-05-08 20:49 55.02419 -20.62796 39397 ft 480 kts 89°
2026-05-08 20:49 55.01997 -20.51223 39400 ft 481 kts 89°
2026-05-08 20:50 55.01566 -20.39659 39398 ft 480 kts 89°
2026-05-08 20:50 55.01123 -20.28127 39403 ft 480 kts 90°
2026-05-08 20:51 55.00665 -20.16485 39400 ft 481 kts 90°
2026-05-08 20:51 55.00055 -20.04962 39397 ft 484 kts 95°
2026-05-08 20:52 54.98766 -19.93456 39397 ft 488 kts 101°
2026-05-08 20:52 54.96851 -19.82133 39396 ft 489 kts 103°
2026-05-08 20:53 54.94846 -19.70859 39388 ft 489 kts 103°
2026-05-08 20:53 54.92836 -19.59617 39392 ft 489 kts 104°
2026-05-08 20:54 54.90819 -19.48369 39392 ft 490 kts 104°
2026-05-08 20:54 54.88783 -19.37095 39387 ft 490 kts 104°
2026-05-08 20:55 54.86742 -19.25861 39391 ft 490 kts 104°
2026-05-08 20:55 54.84680 -19.14576 39385 ft 491 kts 104°
2026-05-08 20:56 54.82626 -19.03383 39381 ft 491 kts 105°
2026-05-08 20:56 54.80551 -18.92155 39376 ft 491 kts 105°
2026-05-08 20:57 54.78468 -18.80967 39374 ft 490 kts 105°
2026-05-08 20:57 54.76370 -18.69756 39371 ft 491 kts 105°
2026-05-08 20:58 54.74269 -18.58593 39371 ft 491 kts 105°
2026-05-08 20:58 54.72152 -18.47414 39376 ft 491 kts 105°
2026-05-08 20:59 54.70025 -18.36235 39375 ft 491 kts 105°
2026-05-08 20:59 54.67884 -18.25054 39375 ft 491 kts 106°
2026-05-08 21:00 54.65734 -18.13911 39374 ft 491 kts 106°
2026-05-08 21:00 54.63573 -18.02764 39372 ft 491 kts 106°
2026-05-08 21:01 54.61406 -17.91634 39369 ft 492 kts 107°
2026-05-08 21:01 54.59212 -17.80440 39363 ft 493 kts 107°
2026-05-08 21:02 54.57018 -17.69314 39359 ft 492 kts 107°
2026-05-08 21:02 54.54819 -17.58232 39357 ft 492 kts 107°
2026-05-08 21:03 54.52602 -17.47119 39363 ft 492 kts 107°
2026-05-08 21:03 54.50386 -17.36069 39365 ft 493 kts 107°
2026-05-08 21:04 54.48146 -17.24961 39363 ft 493 kts 108°
2026-05-08 21:04 54.45885 -17.13822 39363 ft 493 kts 108°
2026-05-08 21:05 54.43633 -17.02783 39359 ft 493 kts 108°
2026-05-08 21:05 54.41364 -16.91722 39360 ft 493 kts 108°
2026-05-08 21:06 54.39083 -16.80664 39358 ft 493 kts 108°
2026-05-08 21:06 54.36795 -16.69634 39358 ft 493 kts 108°
2026-05-08 21:07 54.34495 -16.58608 39345 ft 493 kts 108°
2026-05-08 21:07 54.32191 -16.47620 39334 ft 493 kts 109°
2026-05-08 21:08 54.29861 -16.36569 39325 ft 493 kts 109°
2026-05-08 21:08 54.27539 -16.25621 39322 ft 493 kts 109°
2026-05-08 21:09 54.25193 -16.14616 39325 ft 493 kts 109°
2026-05-08 21:09 54.22854 -16.03693 39321 ft 491 kts 110°
2026-05-08 21:10 54.20496 -15.92749 39326 ft 490 kts 110°
2026-05-08 21:10 54.18131 -15.81826 39326 ft 491 kts 110°
2026-05-08 21:11 54.15742 -15.70861 39327 ft 492 kts 110°
2026-05-08 21:11 54.13361 -15.59990 39329 ft 493 kts 110°
2026-05-08 21:12 54.10957 -15.49068 39327 ft 493 kts 110°
2026-05-08 21:12 54.08544 -15.38163 39326 ft 493 kts 110°
2026-05-08 21:13 54.06109 -15.27211 39321 ft 493 kts 111°
2026-05-08 21:13 54.03683 -15.16337 39317 ft 492 kts 110°
2026-05-08 21:14 54.01679 -15.05175 39315 ft 492 kts 104°
2026-05-08 21:14 54.00440 -14.93737 39309 ft 493 kts 97°
2026-05-08 21:15 53.99987 -14.82157 39311 ft 493 kts 90°
2026-05-08 21:15 54.00017 -14.70491 39300 ft 495 kts 89°
2026-05-08 21:16 54.00057 -14.58807 39300 ft 494 kts 90°
2026-05-08 21:16 54.00075 -14.47200 39295 ft 494 kts 90°
2026-05-08 21:17 54.00075 -14.35579 39302 ft 494 kts 90°
2026-05-08 21:17 54.00063 -14.23933 39298 ft 495 kts 91°
2026-05-08 21:18 54.00039 -14.12242 39291 ft 494 kts 91°
2026-05-08 21:18 54.00003 -14.00628 39297 ft 494 kts 91°
2026-05-08 21:19 53.99853 -13.89000 39287 ft 495 kts 92°
2026-05-08 21:19 53.99636 -13.77378 39273 ft 495 kts 92°
2026-05-08 21:20 53.99415 -13.65737 39277 ft 496 kts 92°
2026-05-08 21:20 53.99188 -13.54095 39282 ft 496 kts 92°
2026-05-08 21:21 53.98953 -13.42425 39276 ft 496 kts 92°
2026-05-08 21:21 53.98704 -13.30708 39277 ft 497 kts 93°
2026-05-08 21:22 53.98447 -13.19068 39269 ft 496 kts 94°
2026-05-08 21:22 53.98176 -13.07382 39269 ft 495 kts 93°
2026-05-08 21:23 53.97894 -12.95720 39264 ft 496 kts 93°
2026-05-08 21:23 53.97601 -12.84064 39264 ft 496 kts 93°
2026-05-08 21:24 53.97298 -12.72397 39261 ft 496 kts 93°
2026-05-08 21:24 53.96983 -12.60725 39261 ft 496 kts 93°
2026-05-08 21:25 53.96657 -12.49049 39256 ft 497 kts 94°
2026-05-08 21:25 53.96320 -12.37393 39266 ft 497 kts 94°
2026-05-08 21:26 53.95972 -12.25764 39252 ft 497 kts 95°
2026-05-08 21:26 53.95610 -12.14081 39249 ft 496 kts 95°
2026-05-08 21:27 53.95236 -12.02390 39243 ft 496 kts 95°
2026-05-08 21:27 53.94854 -11.90752 39242 ft 498 kts 95°
2026-05-08 21:28 53.94458 -11.79013 39239 ft 498 kts 95°
2026-05-08 21:28 53.94049 -11.67286 39234 ft 498 kts 95°
2026-05-08 21:29 53.93631 -11.55586 39235 ft 499 kts 95°
2026-05-08 21:29 53.93202 -11.43944 39234 ft 498 kts 95°
2026-05-08 21:30 53.92759 -11.32224 39225 ft 499 kts 96°
2026-05-08 21:30 53.92307 -11.20551 39211 ft 498 kts 96°
2026-05-08 21:31 53.91843 -11.08894 39224 ft 498 kts 96°
2026-05-08 21:31 53.91364 -10.97100 39207 ft 498 kts 96°
2026-05-08 21:32 53.90878 -10.85428 39218 ft 498 kts 96°
2026-05-08 21:32 53.90382 -10.73828 39220 ft 498 kts 96°
2026-05-08 21:33 53.89871 -10.62138 39228 ft 498 kts 96°
2026-05-08 21:33 53.89347 -10.50451 39220 ft 498 kts 96°
2026-05-08 21:34 53.88916 -10.38790 39207 ft 499 kts 94°
2026-05-08 21:34 53.88652 -10.27084 39205 ft 499 kts 94°
2026-05-08 21:35 53.88380 -10.15275 39190 ft 499 kts 94°
2026-05-08 21:35 53.88091 -10.03502 39216 ft 500 kts 95°
2026-05-08 21:36 53.87791 -9.91786 39203 ft 500 kts 94°
2026-05-08 21:36 53.87474 -9.79949 39200 ft 500 kts 94°
2026-05-08 21:37 53.87149 -9.68233 39194 ft 501 kts 94°
2026-05-08 21:37 53.86813 -9.56510 38878 ft 500 kts 94°
2026-05-08 21:37 53.86644 -9.50685 38568 ft 498 kts 95°
2026-05-08 21:38 53.86475 -9.44869 38090 ft 497 kts 95°
2026-05-08 21:38 53.86300 -9.39062 37576 ft 498 kts 96°
2026-05-08 21:38 53.86123 -9.33241 36956 ft 499 kts 97°
2026-05-08 21:38 53.85941 -9.27405 36361 ft 500 kts 97°
2026-05-08 21:39 53.85755 -9.21557 35861 ft 503 kts 97°
2026-05-08 21:39 53.85564 -9.15628 35198 ft 508 kts 98°
2026-05-08 21:39 53.85368 -9.09667 34421 ft 514 kts 99°
2026-05-08 21:39 53.85162 -9.03606 33596 ft 515 kts 98°
2026-05-08 21:40 53.84953 -8.97638 32887 ft 514 kts 98°
2026-05-08 21:40 53.84743 -8.91601 32189 ft 513 kts 98°
2026-05-08 21:40 53.84532 -8.85598 31500 ft 511 kts 98°
2026-05-08 21:41 53.84105 -8.73613 30125 ft 509 kts 97°
2026-05-08 21:41 53.83888 -8.67684 29432 ft 509 kts 97°
2026-05-08 21:41 53.83669 -8.61755 28722 ft 509 kts 97°
2026-05-08 21:41 53.83447 -8.55820 28067 ft 506 kts 97°
2026-05-08 21:42 53.83227 -8.49957 27610 ft 500 kts 97°
2026-05-08 21:42 53.83007 -8.44130 27078 ft 496 kts 97°
2026-05-08 21:42 53.82785 -8.38375 26586 ft 490 kts 97°
2026-05-08 21:42 53.82560 -8.32656 26109 ft 485 kts 97°
2026-05-08 21:43 53.82338 -8.27045 25644 ft 479 kts 97°
2026-05-08 21:43 53.82115 -8.21496 25185 ft 474 kts 97°
2026-05-08 21:43 53.81891 -8.15994 24726 ft 469 kts 97°
2026-05-08 21:43 53.81663 -8.10494 24272 ft 464 kts 97°
2026-05-08 21:44 53.81438 -8.05113 23820 ft 459 kts 97°
2026-05-08 21:44 53.81213 -7.99782 23387 ft 455 kts 97°
2026-05-08 21:44 53.80985 -7.94458 22920 ft 451 kts 97°
2026-05-08 21:44 53.80761 -7.89217 22487 ft 447 kts 97°
2026-05-08 21:45 53.80537 -7.84050 22037 ft 443 kts 97°
2026-05-08 21:45 53.80310 -7.78859 21588 ft 438 kts 96°
2026-05-08 21:45 53.80084 -7.73776 21136 ft 434 kts 96°
2026-05-08 21:45 53.79861 -7.68741 20682 ft 430 kts 96°
2026-05-08 21:46 53.79633 -7.63750 20238 ft 427 kts 96°
2026-05-08 21:46 53.79408 -7.58807 19803 ft 423 kts 96°
2026-05-08 21:46 53.79183 -7.53904 19355 ft 419 kts 96°
2026-05-08 21:46 53.78958 -7.49047 18923 ft 415 kts 96°
2026-05-08 21:47 53.78731 -7.44211 18486 ft 412 kts 96°
2026-05-08 21:47 53.78502 -7.39377 18038 ft 408 kts 96°
2026-05-08 21:47 53.78276 -7.34635 17592 ft 405 kts 96°
2026-05-08 21:47 53.78022 -7.29933 17150 ft 401 kts 98°
2026-05-08 21:48 53.77618 -7.25293 16892 ft 405 kts 101°
2026-05-08 21:48 53.77149 -7.20588 16915 ft 409 kts 101°
2026-05-08 21:48 53.76671 -7.15864 16944 ft 410 kts 101°
2026-05-08 21:48 53.76190 -7.11131 16962 ft 410 kts 101°
2026-05-08 21:49 53.75709 -7.06395 16977 ft 411 kts 101°
2026-05-08 21:49 53.75219 -7.01604 16998 ft 411 kts 101°
2026-05-08 21:49 53.74732 -6.96854 17018 ft 411 kts 101°
2026-05-08 21:49 53.74244 -6.92111 16987 ft 411 kts 101°
2026-05-08 21:50 53.73753 -6.87371 16532 ft 410 kts 101°
2026-05-08 21:50 53.73267 -6.82681 16018 ft 407 kts 101°
2026-05-08 21:50 53.72780 -6.78015 15548 ft 402 kts 101°
2026-05-08 21:50 53.72300 -6.73422 15092 ft 397 kts 101°
2026-05-08 21:51 53.71823 -6.68883 14643 ft 392 kts 101°
2026-05-08 21:51 53.71354 -6.64433 14202 ft 388 kts 101°
2026-05-08 21:51 53.70884 -6.59993 13762 ft 383 kts 101°
2026-05-08 21:51 53.70420 -6.55605 13324 ft 379 kts 101°
2026-05-08 21:52 53.69958 -6.51266 12887 ft 375 kts 101°
2026-05-08 21:52 53.69500 -6.46969 12444 ft 371 kts 101°
2026-05-08 21:52 53.69049 -6.42759 12019 ft 367 kts 101°
2026-05-08 21:52 53.68597 -6.38564 11588 ft 364 kts 101°
2026-05-08 21:53 53.68145 -6.34383 11148 ft 360 kts 101°
2026-05-08 21:53 53.67703 -6.30308 10950 ft 348 kts 101°
2026-05-08 21:53 53.67275 -6.26370 10818 ft 335 kts 101°
2026-05-08 21:53 53.66861 -6.22581 10700 ft 323 kts 101°
2026-05-08 21:54 53.66465 -6.18949 10577 ft 311 kts 101°
2026-05-08 21:54 53.66081 -6.15444 10461 ft 299 kts 101°
2026-05-08 21:54 53.65710 -6.12069 10363 ft 288 kts 101°
2026-05-08 21:54 53.65354 -6.08837 10276 ft 278 kts 101°
2026-05-08 21:55 53.65003 -6.05672 10189 ft 272 kts 102°
2026-05-08 21:55 53.64657 -6.02557 9934 ft 273 kts 101°
2026-05-08 21:55 53.64308 -5.99432 9623 ft 272 kts 101°
2026-05-08 21:56 53.63758 -5.93121 9032 ft 270 kts 96°
2026-05-08 21:56 53.63586 -5.89989 8745 ft 269 kts 95°
2026-05-08 21:56 53.63417 -5.86878 8463 ft 268 kts 95°
2026-05-08 21:56 53.63250 -5.83804 8295 ft 260 kts 95°
2026-05-08 21:57 53.63089 -5.80853 8242 ft 248 kts 95°
2026-05-08 21:57 53.62920 -5.78039 8176 ft 237 kts 101°
2026-05-08 21:57 53.62366 -5.75449 8151 ft 233 kts 121°
2026-05-08 21:57 53.61457 -5.73243 8152 ft 232 kts 127°
2026-05-08 21:58 53.60475 -5.71063 8153 ft 232 kts 127°
2026-05-08 21:58 53.59499 -5.68904 8153 ft 232 kts 127°
2026-05-08 21:58 53.58533 -5.66747 8154 ft 232 kts 127°
2026-05-08 21:58 53.57549 -5.64616 8151 ft 231 kts 133°
2026-05-08 21:59 53.56343 -5.62830 8147 ft 231 kts 146°
2026-05-08 21:59 53.54985 -5.61384 8145 ft 230 kts 148°
2026-05-08 21:59 53.53614 -5.60004 8138 ft 230 kts 149°
2026-05-08 21:59 53.52239 -5.58623 8141 ft 230 kts 148°
2026-05-08 22:00 53.50882 -5.57249 8144 ft 230 kts 148°
2026-05-08 22:00 53.49493 -5.55915 8140 ft 230 kts 155°
2026-05-08 22:00 53.47979 -5.55065 8142 ft 230 kts 168°
2026-05-08 22:00 53.46423 -5.54596 8144 ft 230 kts 170°
2026-05-08 22:01 53.44828 -5.54175 8146 ft 230 kts 171°
2026-05-08 22:01 53.43251 -5.53761 8145 ft 230 kts 170°
2026-05-08 22:01 53.41679 -5.53340 8143 ft 230 kts 170°
2026-05-08 22:01 53.40097 -5.52996 8137 ft 229 kts 178°
2026-05-08 22:02 53.38516 -5.53187 8138 ft 230 kts 189°
2026-05-08 22:02 53.36955 -5.53739 8138 ft 230 kts 192°
2026-05-08 22:02 53.35400 -5.54343 8135 ft 230 kts 192°
2026-05-08 22:02 53.33846 -5.54946 8136 ft 230 kts 192°
2026-05-08 22:03 53.32292 -5.55539 8136 ft 230 kts 192°
2026-05-08 22:03 53.30747 -5.56220 8133 ft 230 kts 199°
2026-05-08 22:03 53.29314 -5.57395 8135 ft 231 kts 211°
2026-05-08 22:03 53.27976 -5.58861 8136 ft 231 kts 213°
2026-05-08 22:04 53.26652 -5.60370 8133 ft 231 kts 213°
2026-05-08 22:04 53.25350 -5.61938 8127 ft 232 kts 223°
2026-05-08 22:04 53.24551 -5.64260 8126 ft 234 kts 258°
2026-05-08 22:04 53.24615 -5.66941 7969 ft 239 kts 289°
2026-05-08 22:05 53.25525 -5.69260 7487 ft 246 kts 315°
2026-05-08 22:05 53.26775 -5.71292 7065 ft 251 kts 316°
2026-05-08 22:05 53.28017 -5.73341 6728 ft 251 kts 315°
2026-05-08 22:05 53.29228 -5.75384 6487 ft 248 kts 315°
2026-05-08 22:06 53.30436 -5.77449 6122 ft 250 kts 315°
2026-05-08 22:06 53.31641 -5.79526 5890 ft 246 kts 315°
2026-05-08 22:06 53.32813 -5.81552 5669 ft 242 kts 315°
2026-05-08 22:06 53.33979 -5.83573 5445 ft 238 kts 316°
2026-05-08 22:07 53.35104 -5.85522 5225 ft 235 kts 316°
2026-05-08 22:07 53.36232 -5.87479 4973 ft 233 kts 316°
2026-05-08 22:07 53.37353 -5.89426 4710 ft 231 kts 316°
2026-05-08 22:07 53.38461 -5.91350 4451 ft 230 kts 317°
2026-05-08 22:08 53.39561 -5.93267 4191 ft 229 kts 315°
2026-05-08 22:08 53.40372 -5.95566 3885 ft 235 kts 287°
2026-05-08 22:08 53.40590 -5.98277 3652 ft 234 kts 278°
2026-05-08 22:08 53.40715 -6.00969 3462 ft 230 kts 278°
2026-05-08 22:09 53.40815 -6.03103 3304 ft 227 kts 278°
2026-05-08 22:09 53.40828 -6.03360 3285 ft 227 kts 278°
2026-05-08 22:09 53.40960 -6.05964 3120 ft 222 kts 279°
2026-05-08 22:10 53.41101 -6.08549 2740 ft 228 kts 279°
2026-05-08 22:10 53.41246 -6.11159 2302 ft 227 kts 280°
2026-05-08 22:10 53.41397 -6.13802 1699 ft 227 kts 280°
2026-05-08 22:10 53.41555 -6.16378 1272 ft 221 kts 279°
2026-05-08 22:11 53.41690 -6.18875 967 ft 211 kts 278°
2026-05-08 22:11 53.41817 -6.21272 689 ft 200 kts 278°
2026-05-08 22:11 53.41942 -6.23521 410 ft 190 kts 277°
2026-05-08 22:11 53.42051 -6.25642 225 ft 176 kts 277°
2026-05-08 22:12 53.42147 -6.27549 238 ft 150 kts 278°
2026-05-08 22:12 53.42263 -6.29385 493 ft 174 kts 278°
2026-05-08 22:12 53.42351 -6.31297 1572 ft 164 kts 279°
2026-05-08 22:12 53.42445 -6.33156 2248 ft 170 kts 282°
2026-05-08 22:13 53.42592 -6.35322 2466 ft 202 kts 282°
2026-05-08 22:13 53.42756 -6.37726 2486 ft 211 kts 281°
2026-05-08 22:13 53.42919 -6.40197 2490 ft 213 kts 281°
2026-05-08 22:13 53.43072 -6.42667 2491 ft 215 kts 285°
2026-05-08 22:14 53.43733 -6.44778 2472 ft 206 kts 321°
2026-05-08 22:14 53.44976 -6.45782 2483 ft 197 kts 356°
2026-05-08 22:14 53.46337 -6.45728 2508 ft 196 kts
2026-05-08 22:14 53.47704 -6.45485 2582 ft 202 kts
2026-05-08 22:15 53.49090 -6.45117 2904 ft 199 kts 22°
2026-05-08 22:15 53.50182 -6.43769 2987 ft 198 kts 57°
2026-05-08 22:15 53.50562 -6.41582 2989 ft 203 kts 90°
2026-05-08 22:15 53.50368 -6.39226 3009 ft 206 kts 98°
2026-05-08 22:16 53.50097 -6.36854 3000 ft 205 kts 95°
2026-05-08 22:16 53.49920 -6.34506 2997 ft 204 kts 91°
2026-05-08 22:16 53.49834 -6.32119 2995 ft 204 kts 89°
2026-05-08 22:16 53.49767 -6.29734 2995 ft 204 kts 89°
2026-05-08 22:17 53.49696 -6.27394 2899 ft 201 kts 90°
2026-05-08 22:17 53.49590 -6.25047 2616 ft 202 kts 91°
2026-05-08 22:17 53.49470 -6.22734 2504 ft 201 kts 91°
2026-05-08 22:17 53.49342 -6.20362 2499 ft 202 kts 91°
2026-05-08 22:18 53.49220 -6.18034 2497 ft 202 kts 91°
2026-05-08 22:18 53.49095 -6.15686 2494 ft 201 kts 91°
2026-05-08 22:18 53.48970 -6.13415 2482 ft 188 kts 91°
2026-05-08 22:18 53.48850 -6.11308 2474 ft 175 kts 91°
2026-05-08 22:19 53.48731 -6.09349 2465 ft 163 kts 91°
2026-05-08 22:19 53.48614 -6.07474 2480 ft 162 kts 91°
2026-05-08 22:19 53.48494 -6.05610 2490 ft 162 kts 91°
2026-05-08 22:19 53.48369 -6.03709 2506 ft 162 kts 91°
2026-05-08 22:20 53.48149 -6.01856 2512 ft 168 kts 111°
2026-05-08 22:20 53.47256 -6.00541 2492 ft 181 kts 156°
2026-05-08 22:20 53.46006 -6.00354 2498 ft 180 kts 180°
2026-05-08 22:20 53.44762 -6.00536 2496 ft 179 kts 183°
2026-05-08 22:21 53.43536 -6.00776 2494 ft 179 kts 184°
2026-05-08 22:21 53.42298 -6.01023 2493 ft 179 kts 184°
2026-05-08 22:21 53.41127 -6.01644 2461 ft 178 kts 223°
2026-05-08 22:21 53.40629 -6.03364 2462 ft 162 kts 276°
2026-05-08 22:22 53.40743 -6.05224 2507 ft 159 kts 285°
2026-05-08 22:22 53.40922 -6.07013 2364 ft 156 kts 287°
2026-05-08 22:22 53.41109 -6.08798 2154 ft 156 kts 285°
2026-05-08 22:22 53.41246 -6.10611 1941 ft 156 kts 282°
2026-05-08 22:23 53.41346 -6.12418 1725 ft 155 kts 281°
2026-05-08 22:23 53.41437 -6.14201 1511 ft 154 kts 281°
2026-05-08 22:23 53.41531 -6.16000 1304 ft 154 kts 280°
2026-05-08 22:23 53.41626 -6.17764 1099 ft 153 kts 280°
2026-05-08 22:24 53.41723 -6.19516 888 ft 152 kts 279°
2026-05-08 22:24 53.41819 -6.21285 680 ft 151 kts 279°
2026-05-08 22:24 53.41914 -6.23023 482 ft 150 kts 278°
2026-05-08 22:24 53.42004 -6.24760 272 ft 149 kts 277°
2026-05-08 22:25 53.42098 -6.26316 223 ft 107 kts 276°
2026-05-08 22:25 53.42153 -6.27216 235 ft 63 kts 278°
2026-05-08 22:25 53.42204 -6.27827 241 ft 45 kts 294°
2026-05-08 22:25 53.42294 -6.28097 243 ft 7 kts 315°